Home   Weather   Armidale   Past weeks

Flag for Australia Past Weather in Armidale, New South Wales, Australia — Yesterday and Last 2 Weeks

Now
65 °F

Mild.


Feels Like: 65 °F
Forecast: 56 / 87 °F
Wind: 7 mph from Northwest

Location: Armidale Airport Aws

Current Time: Dec 4, 2016 at 9:00:58 am

Latest Report: Dec 4, 2016 at 7:00 am


Visibility: N/A

Pressure: 29.97 "Hg (26.71 "Hg at 981m altitude)

Humidity: 64%

Dew Point: 53 °F

Location of ArmidaleLocation

Past Weather in Armidale — Graph

°F

Armidale Temperature Yesterday

Maximum temperature yesterday: 87 °F (at 1:00 pm)
Minimum temperature yesterday: 62 °F (at 6:00 am)
Average temperature yesterday: 73 °F

High & Low Weather Summary for the Past Weeks

 TemperatureHumidityPressure
High87 °F (Dec 3, 1:00 pm)100% (Nov 20, 7:00 am)30.14 "Hg (Nov 20, 7:00 am)
Low43 °F (Nov 25, 6:00 am)19% (Dec 2, 4:00 pm)29.71 "Hg (Dec 1, 4:00 pm)
Average65 °F54%29.91 "Hg
* Reported Nov 19 7:00 am — Dec 4 7:00 am, Armidale, Weather by CustomWeather, © 2016

Note: Actual official high and low records may vary slightly from our data, if they occured in-between our weather recording intervals... More about our weather records

Advertising

Armidale Weather History for the Previous 24 Hours

Scroll right to see more
 ConditionsComfort  
Time TempWeatherWind HumidityBarometerVisibility
7:00 am
Sun, Dec 4
65 °FMild.7 mph64%29.97 "HgN/A
6:00 am59 °FCool.7 mph73%29.96 "HgN/A
4:00 am57 °FCool.6 mph80%29.94 "HgN/A
3:00 am56 °FCool.6 mph83%29.94 "HgN/A
1:00 am65 °FMild.10 mph62%29.96 "HgN/A
12:00 am63 °FMild.12 mph64%29.96 "HgN/A
10:00 pm
Sat, Dec 3
64 °FMild.13 mph61%29.96 "HgN/A
9:00 pm65 °FMild.15 mph65%29.94 "HgN/A
7:00 pm72 °FMild.12 mph51%29.86 "HgN/A
6:00 pm75 °FPartly sunny.9 mph47%29.85 "HgN/A
4:00 pm75 °FMild.14 mph37%29.83 "HgN/A
3:00 pm85 °FOvercast.17 mph25%29.86 "HgN/A
1:00 pm87 °FPleasantly warm.13 mph27%29.90 "HgN/A
12:00 pm86 °FPassing clouds.17 mph28%29.91 "HgN/A
10:00 am82 °FPleasantly warm.16 mph28%29.94 "HgN/A
9:00 am79 °FOvercast.10 mph31%29.94 "HgN/A
Weather by CustomWeather, © 2016

See weather overviewHow to use our weather pages